Regional Weather Roundup
Issued by NWS

Home | Current Version | Previous Version | Graphics & Text | Print | Product List | Glossary Off
Versions: 1 2 3 4 5 6 7 8 9 10 11 12 13 14 15 16 17 18 19 20 21 22 23 24 25 26 27 28 29 30 31 32 33 34 35 36 37 38 39 40 41 42 43 44 45 46 47 48 49 50

000
ASUS43 KFSD 262210
RWRSD

WEATHER ROUNDUP FOR SOUTH DAKOTA
NATIONAL WEATHER SERVICE SIOUX FALLS SD
500 PM CDT SUN MAR 26 2017

NOTE: "FAIR" INDICATES FEW OR NO CLOUDS BELOW 12,000 FEET WITH NO
SIGNIFICANT WEATHER AND/OR OBSTRUCTIONS TO VISIBILITY.


SDZ001>005-009-010-012>017-262300-
NORTHWEST AND NORTH CENTRAL SOUTH DAKOTA

CITY           SKY/WX    TMP DP  RH WIND       PRES   REMARKS
BUFFALO          N/A     55  35  47 E7        29.83F
FAITH            N/A     50  34  54 MISG      29.92S
MOBRIDGE       PTSUNNY   54  35  48 VRB3      29.89F
$$

SDZ012>016-024>037-041>051-057-063-072>074-262300-
SOUTHWEST AND SOUTH CENTRAL SOUTH DAKOTA

CITY           SKY/WX    TMP DP  RH WIND       PRES   REMARKS
RAPID CTY ARPT LGT RAIN  42  39  89 N7        29.94S
PIERRE         CLOUDY    45  38  76 NW6       29.93S
CUSTER         LGT RAIN  38  35  89 SE3       29.91S
ELLSWORTH AFB  LGT RAIN  42  42 100 NW7       29.94
PHILIP         CLOUDY    45  40  82 N7        29.94S
PINE RIDGE     PTSUNNY   50  40  68 N12       29.92R
SPEARFISH      FAIR      43  37  81 CALM      29.93F
WINNER         MOCLDY    49  39  68 VRB5      29.91F
$$

SDZ004>011-016>023-039-040-262300-
NORTHEAST SOUTH DAKOTA

CITY           SKY/WX    TMP DP  RH WIND       PRES   REMARKS
ABERDEEN       CLOUDY    47  36  65 W6        29.94S
WATERTOWN      MOSUNNY   44  37  76 W6        29.92S
BROOKINGS      CLOUDY    41  37  86 N5        29.93S
SISSETON         N/A     47  40  76 CALM      29.92F
$$

SDZ017-020-022-023-036>040-048>070-262300-
SOUTHEAST SOUTH DAKOTA

CITY           SKY/WX    TMP DP  RH WIND       PRES   REMARKS
SIOUX FALLS    CLOUDY    48  39  71 N8        29.92S
HURON          PTSUNNY   50  38  63 VRB5      29.93S
CHAMBERLAIN    CLOUDY    48  41  76 N7        29.93S
MITCHELL       CLOUDY    49  39  68 VRB3      29.94R
YANKTON        CLOUDY    46  37  71 N5        29.92R
$$

ABBREVIATIONS USED IN REMARKS
   TC - TEMPERATURE IN CELSIUS
  WCI - WIND CHILL INDEX
   HX - HEAT INDEX
  VSB - VISIBILITY




USA.gov is the U.S. government's official web portal to all federal, state and local government web resources and services.